• In United Kingdom
  • List of Countries
  • For 7 days
  • Water Temperature
  • Satellite Maps
  • Weather Map
  • Weather Widgets
  • user-avatar
    Login

    Hourly Weather Bristol

    Today, 25 September, Tuesday

    Time Temperature Precipitation Wind Pressure Humidity
    00:00 +8°C° 0 mm 1 mps 777 mmHg 83%
    01:00 +8°C° 0 mm 1 mps 777 mmHg 84%
    02:00 +8°C° 0 mm 1 mps 777 mmHg 84%
    03:00 +7°C° 0 mm 1 mps 777 mmHg 85%
    04:00 +7°C° 0 mm 1 mps 776 mmHg 84%
    05:00 +7°C° 0 mm 1 mps 776 mmHg 84%
    06:00 +7°C° 0 mm 1 mps 776 mmHg 83%
    07:00 +8°C° 0 mm 2 mps 776 mmHg 77%
    08:00 +10°C° 0 mm 2 mps 776 mmHg 70%
    09:00 +13°C° 0 mm 2 mps 776 mmHg 63%
    10:00 +13°C° 0 mm 3 mps 776 mmHg 61%
    11:00 +14°C° 0 mm 3 mps 776 mmHg 59%
    12:00 +17°C° 0 mm 4 mps 776 mmHg 57%
    13:00 +17°C° 0 mm 4 mps 776 mmHg 58%
    14:00 +17°C° 0 mm 4 mps 775 mmHg 59%
    15:00 +17°C° 0 mm 4 mps 775 mmHg 61%
    16:00 +15°C° 0 mm 4 mps 775 mmHg 67%
    17:00 +13°C° 0 mm 3 mps 774 mmHg 72%
    18:00 +12°C° 0 mm 3 mps 774 mmHg 78%
    19:00 +11°C° 0 mm 3 mps 774 mmHg 80%
    20:00 +10°C° 0 mm 3 mps 775 mmHg 81%
    21:00 +9°C° 0 mm 3 mps 775 mmHg 83%
    22:00 +9°C° 0 mm 3 mps 775 mmHg 83%
    23:00 +9°C° 0 mm 2 mps 774 mmHg 83%

    Tomorrow, 26 September, Wednesday

    Time Temperature Precipitation Wind Pressure Humidity
    00:00 +9°C° 0 mm 2 mps 774 mmHg 83%
    01:00 +8°C° 0 mm 2 mps 774 mmHg 84%
    02:00 +8°C° 0 mm 2 mps 773 mmHg 84%
    03:00 +8°C° 0 mm 2 mps 773 mmHg 85%
    04:00 +8°C° 0 mm 2 mps 773 mmHg 85%
    05:00 +8°C° 0 mm 2 mps 773 mmHg 86%
    06:00 +8°C° 0 mm 2 mps 773 mmHg 86%
    07:00 +10°C° 0 mm 2 mps 773 mmHg 80%
    08:00 +13°C° 0 mm 2 mps 773 mmHg 73%
    09:00 +15°C° 0 mm 2 mps 773 mmHg 66%
    10:00 +16°C° 0 mm 2 mps 773 mmHg 60%
    11:00 +18°C° 0 mm 2 mps 773 mmHg 54%
    12:00 +19°C° 0 mm 2 mps 773 mmHg 48%
    13:00 +20°C° 0 mm 2 mps 773 mmHg 48%
    14:00 +20°C° 0 mm 2 mps 772 mmHg 48%
    15:00 +20°C° 0 mm 2 mps 772 mmHg 48%
    16:00 +19°C° 0 mm 2 mps 772 mmHg 55%
    17:00 +17°C° 0 mm 2 mps 772 mmHg 62%
    18:00 +15°C° 0 mm 1 mps 772 mmHg 69%
    19:00 +14°C° 0 mm 1 mps 772 mmHg 72%
    20:00 +13°C° 0 mm 1 mps 772 mmHg 75%
    21:00 +12°C° 0 mm 1 mps 772 mmHg 77%
    22:00 +12°C° 0 mm 1 mps 772 mmHg 78%
    23:00 +12°C° 0 mm 1 mps 772 mmHg 79%

    Day after tomorrow, 27 September, Thursday

    Time Temperature Precipitation Wind Pressure Humidity
    00:00 +11°C° 0 mm 1 mps 772 mmHg 80%
    01:00 +11°C° 0 mm 1 mps 771 mmHg 80%
    02:00 +11°C° 0 mm 1 mps 771 mmHg 79%
    03:00 +10°C° 0 mm 1 mps 771 mmHg 79%
    04:00 +10°C° 0 mm 1 mps 771 mmHg 78%
    05:00 +10°C° 0 mm 1 mps 770 mmHg 77%
    06:00 +10°C° 0 mm 1 mps 770 mmHg 77%
    07:00 +12°C° 0 mm 1 mps 770 mmHg 72%
    08:00 +14°C° 0 mm 2 mps 769 mmHg 67%
    09:00 +16°C° 0 mm 2 mps 769 mmHg 62%
    10:00 +18°C° 0 mm 2 mps 769 mmHg 60%
    11:00 +20°C° 0 mm 2 mps 769 mmHg 57%
    12:00 +21°C° 0 mm 2 mps 769 mmHg 55%
    13:00 +23°C° 0 mm 2 mps 768 mmHg 55%
    14:00 +23°C° 0 mm 2 mps 768 mmHg 56%
    15:00 +23°C° 0 mm 2 mps 767 mmHg 57%
    16:00 +20°C° 0 mm 2 mps 767 mmHg 64%
    17:00 +20°C° 0 mm 1 mps 767 mmHg 70%
    18:00 +18°C° 0 mm 1 mps 767 mmHg 77%
    19:00 +16°C° 0 mm 1 mps 767 mmHg 79%
    20:00 +15°C° 0 mm 2 mps 767 mmHg 80%
    21:00 +14°C° 0 mm 2 mps 768 mmHg 81%
    22:00 +13°C° 0 mm 2 mps 767 mmHg 82%
    23:00 +12°C° 0 mm 3 mps 767 mmHg 82%

    28 September, Friday

    Time Temperature Precipitation Wind Pressure Humidity
    00:00 +11°C° 0 mm 3 mps 767 mmHg 83%
    01:00 +11°C° 0 mm 3 mps 767 mmHg 83%
    02:00 +10°C° 0 mm 4 mps 767 mmHg 83%
    03:00 +10°C° 0 mm 4 mps 767 mmHg 84%
    04:00 +10°C° 0 mm 4 mps 767 mmHg 86%
    05:00 +10°C° 0 mm 4 mps 768 mmHg 89%
    06:00 +8°C° 0 mm 4 mps 768 mmHg 92%
    07:00 +10°C° 0 mm 5 mps 768 mmHg 89%
    08:00 +12°C° 0 mm 5 mps 768 mmHg 86%
    09:00 +13°C° 0 mm 5 mps 769 mmHg 83%
    10:00 +13°C° 0 mm 6 mps 769 mmHg 80%
    11:00 +13°C° 0 mm 6 mps 769 mmHg 78%
    12:00 +12°C° 0 mm 7 mps 769 mmHg 76%
    13:00 +14°C° 0 mm 6 mps 769 mmHg 73%
    14:00 +14°C° 0 mm 6 mps 769 mmHg 71%
    15:00 +14°C° 0 mm 6 mps 769 mmHg 69%
    16:00 +13°C° 0 mm 6 mps 769 mmHg 69%
    17:00 +12°C° 0 mm 5 mps 770 mmHg 70%
    18:00 +12°C° 0 mm 5 mps 770 mmHg 70%
    19:00 +10°C° 0 mm 5 mps 770 mmHg 71%
    20:00 +9°C° 0 mm 5 mps 771 mmHg 71%
    21:00 +9°C° 0 mm 6 mps 771 mmHg 72%
    22:00 +8°C° 0 mm 5 mps 771 mmHg 75%
    23:00 +8°C° 0 mm 5 mps 771 mmHg 79%

    29 September, Saturday

    Time Temperature Precipitation Wind Pressure Humidity
    00:00 +7°C° 0 mm 5 mps 771 mmHg 82%
    01:00 +7°C° 0 mm 5 mps 771 mmHg 83%
    02:00 +7°C° 0 mm 5 mps 770 mmHg 85%
    03:00 +6°C° 0 mm 5 mps 770 mmHg 86%
    04:00 +6°C° 0 mm 5 mps 770 mmHg 87%
    05:00 +6°C° 0 mm 5 mps 770 mmHg 88%
    06:00 +6°C° 0 mm 5 mps 770 mmHg 89%
    07:00 +7°C° 0 mm 6 mps 770 mmHg 84%
    08:00 +9°C° 0 mm 6 mps 770 mmHg 79%
    09:00 +10°C° 0 mm 6 mps 769 mmHg 73%
    10:00 +13°C° 0 mm 6 mps 769 mmHg 69%
    11:00 +14°C° 0 mm 6 mps 769 mmHg 64%
    12:00 +15°C° 0 mm 6 mps 768 mmHg 60%
    13:00 +15°C° 0 mm 6 mps 768 mmHg 59%
    14:00 +16°C° 0 mm 6 mps 767 mmHg 58%
    15:00 +16°C° 0 mm 6 mps 767 mmHg 57%
    16:00 +15°C° 0 mm 5 mps 767 mmHg 61%
    17:00 +13°C° 0 mm 5 mps 766 mmHg 66%
    18:00 +12°C° 0 mm 4 mps 766 mmHg 70%
    19:00 +11°C° 0 mm 4 mps 766 mmHg 71%
    20:00 +11°C° 0 mm 4 mps 766 mmHg 73%
    21:00 +10°C° 0 mm 4 mps 767 mmHg 75%
    22:00 +10°C° 0.1 mm 4 mps 766 mmHg 78%
    23:00 +8°C° 0.1 mm 4 mps 766 mmHg 81%

    30 September, Sunday

    Time Temperature Precipitation Wind Pressure Humidity
    00:00 +8°C° 0.1 mm 4 mps 766 mmHg 85%
    01:00 +8°C° 0 mm 4 mps 766 mmHg 85%
    02:00 +8°C° 0 mm 4 mps 765 mmHg 85%
    03:00 +8°C° 0 mm 5 mps 765 mmHg 84%
    04:00 +7°C° 0 mm 5 mps 765 mmHg 85%
    05:00 +7°C° 0 mm 5 mps 765 mmHg 85%
    06:00 +7°C° 0 mm 5 mps 765 mmHg 85%
    07:00 +8°C° 0 mm 5 mps 765 mmHg 82%
    08:00 +9°C° 0 mm 5 mps 765 mmHg 78%
    09:00 +10°C° 0 mm 5 mps 766 mmHg 75%
    10:00 +12°C° 0 mm 5 mps 766 mmHg 70%
    11:00 +13°C° 0 mm 5 mps 766 mmHg 65%
    12:00 +14°C° 0 mm 4 mps 766 mmHg 61%
    13:00 +14°C° 0 mm 5 mps 766 mmHg 60%
    14:00 +15°C° 0 mm 5 mps 766 mmHg 59%
    15:00 +15°C° 0 mm 5 mps 766 mmHg 57%
    16:00 +14°C° 0 mm 4 mps 766 mmHg 63%
    17:00 +12°C° 0 mm 4 mps 766 mmHg 69%
    18:00 +11°C° 0 mm 4 mps 767 mmHg 74%
    19:00 +11°C° 0 mm 4 mps 767 mmHg 77%
    20:00 +10°C° 0 mm 4 mps 767 mmHg 79%
    21:00 +10°C° 0 mm 4 mps 768 mmHg 81%
    22:00 +8°C° 0 mm 4 mps 768 mmHg 83%
    23:00 +7°C° 0 mm 4 mps 768 mmHg 85%
    Show more